McConnell AFB, KS

2:52 AM CDT on June 28, 2017 (GMT -0500)
McConnell Air Force Base

Weather History for KIAB - September, 2013

Change the Weather History Date:

Wednesday, September 25, 2013

  Actual Average Record
Temperature  
Mean Temperature 69 °F -  
Max Temperature 82 °F 76 °F 93 °F (1998)
Min Temperature 56 °F 54 °F 41 °F (2000)
Cooling Degree Days 4    
Growing Degree Days 19 (Base 50)    
Moisture  
Dew Point 58 °F    
Average Humidity 72    
Maximum Humidity 100    
Minimum Humidity 40    
Precipitation  
Precipitation 0.00 in - - ()
Sea Level Pressure  
Sea Level Pressure 29.86 in    
Wind  
Wind Speed 6 mph (ESE)    
Max Wind Speed 16 mph    
Max Gust Speed -    
Visibility 10 miles    
Events Rain    
Averages and records for this station are not official NWS values.
T = Trace of Precipitation, MM = Missing Value Source: NWS Daily Summary

Daily Weather History Graph

Daily Weather History Graph

Search for Another Location

Airport or City:

Trip Planner

Search our weather history database for the weather conditions in past years. The results will help you decide how hot, cold, wet, or windy it might be!

Date:

Astronomy

Sep. 25, 2013 Rise Set
Actual Time 7:19 AM CDT 7:20 PM CDT
Civil Twilight 6:53 AM CDT 7:47 PM CDT
Nautical Twilight 6:23 AM CDT 8:17 PM CDT
Astronomical Twilight 5:52 AM CDT 8:48 PM CDT
Moon 11:34 PM CDT (9/25) 1:20 PM CDT (9/25)
Length of Visible Light 12h 53m
Length of Day
12h 01m
Waning Gibbous, 64% of the Moon is Illuminated
Sep 25
Waning Gibbous
Sep 26
Last Quarter
Oct 4
New
Oct 11
First Quarter
Oct 18
Full

Hourly Weather History & Observations

Time (CDT) Temp. Heat Index Dew Point Humidity Pressure Visibility Wind Dir Wind Speed Gust Speed Precip Events Conditions
12:58 AM 62.4 °F - 57.0 °F 82% 29.91 in 10.0 mi North 4.6 mph - N/A   Clear
1:58 AM 61.0 °F - 57.4 °F 88% 29.91 in 10.0 mi North 5.8 mph - N/A   Clear
2:58 AM 57.4 °F - 57.2 °F 99% 29.90 in 10.0 mi NNE 6.9 mph - N/A   Clear
3:58 AM 56.8 °F - 56.5 °F 99% 29.89 in 10.0 mi NE 3.5 mph - N/A   Clear
4:58 AM 56.3 °F - 56.3 °F 100% 29.88 in 10.0 mi NE 9.2 mph - N/A   Clear
5:58 AM 57.0 °F - 56.8 °F 99% 29.91 in 10.0 mi WSW 4.6 mph - N/A   Clear
6:58 AM 56.1 °F - 56.1 °F 100% 29.91 in 10.0 mi Calm Calm - N/A   Clear
7:58 AM 56.3 °F - 56.3 °F 100% 29.93 in 10.0 mi West 5.8 mph - N/A   Clear
8:58 AM 59.5 °F - 59.5 °F 100% 29.93 in 10.0 mi North 2.3 mph - N/A   Clear
9:58 AM 65.3 °F - 60.1 °F 83% 29.93 in 10.0 mi Variable 2.3 mph - N/A   Clear
10:21 AM 66.2 °F - 60.8 °F 83% 29.95 in 10.0 mi Variable 1.2 mph - N/A Rain Light Rain
10:39 AM 68.0 °F - 60.8 °F 78% 29.94 in 10.0 mi Variable 3.5 mph - N/A   Clear
10:49 AM 69.8 °F - 59.0 °F 68% 29.94 in 10.0 mi ESE 3.5 mph - N/A   Clear
10:53 AM 69.8 °F - 59.0 °F 68% 29.94 in 10.0 mi NE 1.2 mph - N/A   Light Drizzle
10:58 AM 69.3 °F - 59.5 °F 71% 29.92 in 10.0 mi Variable 3.5 mph - 0.00 in   Clear
11:57 AM 73.4 °F - 57.2 °F 57% 29.91 in 10.0 mi SSE 3.5 mph - N/A   Clear
12:57 PM 75.2 °F - 59.0 °F 57% 29.88 in 10.0 mi Calm Calm - N/A   Clear
12:58 PM 75.0 °F - 59.5 °F 58% 29.88 in 10.0 mi SSE 4.6 mph - 0.00 in   Clear
1:58 PM 77.5 °F - 58.1 °F 51% 29.84 in 10.0 mi SSE 6.9 mph - N/A   Clear
2:58 PM 79.9 °F - 56.5 °F 45% 29.81 in 10.0 mi SE 10.4 mph - N/A   Clear
3:58 PM 81.7 °F 81.4 °F 56.7 °F 42% 29.79 in 10.0 mi SE 10.4 mph - N/A   Clear
4:58 PM 82.2 °F 81.6 °F 55.4 °F 40% 29.77 in 10.0 mi SE 12.7 mph - N/A   Clear
5:58 PM 81.5 °F 81.0 °F 55.0 °F 40% 29.77 in 10.0 mi SE 11.5 mph - N/A   Clear
6:58 PM 77.9 °F - 56.3 °F 47% 29.78 in 10.0 mi ESE 9.2 mph - N/A   Clear
7:58 PM 74.3 °F - 56.3 °F 53% 29.77 in 10.0 mi ESE 10.4 mph - N/A   Clear
8:58 PM 71.8 °F - 57.4 °F 60% 29.77 in 10.0 mi ESE 13.8 mph - N/A   Clear
9:58 PM 70.2 °F - 59.5 °F 69% 29.77 in 10.0 mi East 12.7 mph - N/A   Clear
10:58 PM 68.7 °F - 61.2 °F 77% 29.76 in 10.0 mi ESE 16.1 mph - N/A   Clear
11:58 PM 68.4 °F - 60.3 °F 75% 29.78 in 10.0 mi ESE 16.1 mph - N/A   Clear